N4CRH-13 Weather Reports


time (UTC)temp
F
wind
direction
speed
knots
gust
knots
rain 1hr
in
rain 24hr
in
rain mn
in
humidity
%
barometer
mb
20260508035926 52 265 0.0 0.0 0.00 0.00 0.00 51 1294.5
20260508035422 53 277 0.0 1.7 0.00 0.00 0.00 46 1294.7
20260508034919 53 273 2.6 2.6 0.00 0.00 0.00 45 1294.6
20260508034417 54 275 1.7 1.7 0.00 0.00 0.00 44 1294.7
20260508033913 54 265 1.7 5.2 0.00 0.00 0.00 43 1294.5
20260508033412 53 256 2.6 4.3 0.00 0.00 0.00 43 1294.7
20260508032909 50 260 7.0 8.7 0.00 0.00 0.00 44 1294.6
20260508032406 48 284 0.0 0.9 0.00 0.00 0.00 58 1294.7
20260508031903 48 254 0.0 1.7 0.00 0.00 0.00 57 1294.5
20260508031400 48 241 0.9 1.7 0.00 0.00 0.00 57 1294.3
20260508030855 48 176 0.0 0.9 0.00 0.00 0.00 61 1294.3
20260508030353 48 206 1.7 1.7 0.00 0.00 0.00 62 1294.1
20260508025850 49 223 0.9 0.9 0.00 0.00 0.00 60 1294.1
20260508025342 49 265 0.0 0.0 0.00 0.00 0.00 56 1293.9
20260508024838 49 259 0.0 0.9 0.00 0.00 0.00 58 1293.7
20260508024334 50 258 0.0 0.9 0.00 0.00 0.00 57 1293.6
20260508023831 50 268 0.0 0.0 0.00 0.00 0.00 54 1293.4
20260508023328 51 266 0.0 0.9 0.00 0.00 0.00 57 1293.5
20260508022825 51 247 0.0 0.9 0.00 0.00 0.00 50 1293.2
20260508022321 50 252 0.9 1.7 0.00 0.00 0.00 49 1293.1
20260508021818 51 257 0.9 0.9 0.00 0.00 0.00 52 1293.2
20260508021314 50 239 0.9 1.7 0.00 0.00 0.00 49 1293.1
20260508020811 50 265 0.0 1.7 0.00 0.00 0.00 55 1293.1
20260508020309 51 215 0.9 1.7 0.00 0.00 0.00 50 1292.9
20260508015805 51 258 0.0 0.9 0.00 0.00 0.00 48 1293.1
20260508015305 51 229 0.9 0.9 0.00 0.00 0.00 49 1292.9
20260508014759 52 239 0.9 0.9 0.00 0.00 0.00 50 1292.8
20260508014257 54 258 0.9 0.9 0.00 0.00 0.00 43 1292.5
20260508013752 54 211 0.9 1.7 0.00 0.00 0.00 42 1292.6
20260508013248 55 271 0.0 0.9 0.00 0.00 0.00 40 1292.9
20260508012746 56 271 0.0 0.9 0.00 0.00 0.00 38 1292.5
20260508012243 56 244 0.0 0.9 0.00 0.00 0.00 38 1292.6
20260508011741 57 277 0.0 0.9 0.00 0.00 0.00 37 1292.4
20260508011238 58 253 0.0 2.6 0.00 0.00 0.00 35 1292.4
20260508010735 58 269 0.9 4.3 0.00 0.00 0.00 34 1292.5
20260508010233 59 260 2.6 2.6 0.00 0.00 0.00 32 1292.4
20260508005730 59 303 1.7 1.7 0.00 0.00 0.00 32 1292.4
20260508005227 59 273 0.0 1.7 0.00 0.00 0.00 34 1292.4
20260508004722 60 256 5.2 7.8 0.00 0.00 0.00 31 1292.4
20260508004219 60 271 4.3 7.0 0.00 0.00 0.00 31 1292.4
20260508003715 61 310 5.2 7.0 0.00 0.00 0.00 32 1292.5
20260508003213 62 296 3.5 4.3 0.00 0.00 0.00 33 1292.6
20260508002709 61 264 2.6 4.3 0.00 0.00 0.00 31 1292.6
20260508002207 59 277 2.6 4.3 0.00 0.00 0.00 35 1292.6
20260508001702 59 300 5.2 6.1 0.00 0.00 0.00 36 1292.5
20260508001157 60 279 4.3 6.1 0.00 0.00 0.00 34 1292.4
20260508000653 59 283 5.2 8.7 0.00 0.00 0.00 33 1292.4
20260508000151 60 252 5.2 7.0 0.00 0.00 0.00 30 1292.4
20260507235647 60 293 2.6 7.0 0.00 0.00 0.00 33 1292.6
20260507235145 61 285 7.0 7.8 0.00 0.00 0.00 30 1292.4
20260507234642 62 291 4.3 7.0 0.00 0.00 0.00 31 1292.4
20260507234138 62 259 5.2 6.1 0.00 0.00 0.00 29 1292.4
20260507233635 61 282 5.2 7.0 0.00 0.00 0.00 33 1292.4
20260507233133 61 302 7.0 12.2 0.00 0.00 0.00 31 1292.6
20260507232629 62 281 6.1 8.7 0.00 0.00 0.00 29 1292.5
20260507232127 63 315 7.0 11.3 0.00 0.00 0.00 29 1292.5
20260507231623 62 298 7.0 9.6 0.00 0.00 0.00 30 1292.5
20260507231121 62 247 7.0 11.3 0.00 0.00 0.00 32 1292.5
20260507230616 62 294 7.8 8.7 0.00 0.00 0.00 31 1292.6
20260507230114 62 303 8.7 11.3 0.00 0.00 0.00 30 1292.6
20260507225608 63 280 6.1 7.0 0.00 0.00 0.00 31 1292.4
20260507225106 63 325 6.1 9.6 0.00 0.00 0.00 30 1292.6
20260507224601 63 293 7.0 7.8 0.00 0.00 0.00 27 1292.6
20260507224058 63 283 6.1 13.0 0.00 0.00 0.00 29 1292.6
20260507223554 63 284 8.7 9.6 0.00 0.00 0.00 29 1292.9
20260507223051 63 252 9.6 12.2 0.00 0.00 0.00 28 1292.6
20260507222548 61 310 7.0 9.6 0.00 0.00 0.00 32 1292.9
20260507222044 62 258 9.6 15.6 0.00 0.00 0.00 27 1292.9
20260507221541 60 277 10.4 13.0 0.00 0.00 0.00 31 1292.9
20260507221038 60 298 7.8 11.3 0.00 0.00 0.00 33 1292.9
20260507220535 63 283 13.0 15.6 0.00 0.00 0.00 29 1292.8
20260507220032 63 274 3.5 13.0 0.00 0.00 0.00 31 1293.0
20260507215528 63 258 11.3 17.4 0.00 0.00 0.00 29 1293.0
20260507215027 64 305 8.7 9.6 0.00 0.00 0.00 32 1293.0
20260507214523 62 261 8.7 12.2 0.00 0.00 0.00 30 1293.0
20260507214019 60 248 7.0 9.6 0.00 0.00 0.00 30 1293.0
20260507213516 61 293 11.3 15.6 0.00 0.00 0.00 31 1293.1
20260507213013 59 298 9.6 13.9 0.00 0.00 0.00 32 1293.1
20260507212508 59 241 9.6 11.3 0.00 0.00 0.00 30 1293.2
20260507212005 61 276 10.4 13.0 0.00 0.00 0.00 30 1293.4
20260507211502 64 300 7.0 11.3 0.00 0.00 0.00 35 1293.4
20260507210958 63 276 13.0 20.0 0.00 0.00 0.00 32 1293.4
20260507210455 63 294 13.0 18.2 0.00 0.00 0.00 32 1293.2
20260507205953 62 299 7.0 11.3 0.00 0.00 0.00 34 1293.1
20260507205450 62 304 6.1 9.6 0.00 0.00 0.00 33 1293.6
20260507204945 60 309 2.6 5.2 0.00 0.00 0.00 38 1293.5
20260507204442 61 289 7.8 9.6 0.00 0.00 0.00 36 1293.7
20260507203940 60 264 5.2 7.0 0.00 0.00 0.00 36 1293.7
20260507203437 60 296 0.9 5.2 0.00 0.00 0.00 34 1294.0
20260507202934 60 288 1.7 7.0 0.00 0.00 0.00 33 1294.1
20260507202430 60 293 1.7 5.2 0.00 0.00 0.00 33 1294.2
20260507201926 59 289 3.5 7.0 0.00 0.00 0.00 35 1294.2
20260507201416 60 308 7.8 9.6 0.00 0.00 0.00 39 1294.5
20260507200913 59 337 1.7 5.2 0.00 0.00 0.00 36 1294.5
20260507200409 59 293 0.9 1.7 0.00 0.00 0.00 39 1294.5
20260507195905 58 273 2.6 2.6 0.00 0.00 0.00 34 1294.5
20260507195403 57 253 3.5 5.2 0.00 0.00 0.00 35 1294.6
20260507194859 57 297 0.9 2.6 0.00 0.00 0.00 36 1294.5
20260507194355 57 299 3.5 4.3 0.00 0.00 0.00 39 1294.7
20260507193851 58 268 4.3 5.2 0.00 0.00 0.00 42 1294.7
20260507193350 57 295 2.6 6.1 0.00 0.00 0.00 42 1295.0
20260507192845 56 276 4.3 5.2 0.00 0.00 0.00 41 1294.6
20260507192341 56 303 5.2 7.0 0.00 0.00 0.00 42 1294.8
20260507191838 56 297 5.2 6.1 0.00 0.00 0.00 41 1294.7
20260507191335 56 246 3.5 6.1 0.00 0.00 0.00 42 1294.8
20260507190831 56 288 4.3 8.7 0.00 0.00 0.00 41 1294.7
20260507190330 56 258 3.5 6.1 0.00 0.00 0.00 41 1294.8
20260507185829 56 293 1.7 2.6 0.00 0.00 0.00 38 1294.8
20260507185325 56 266 11.3 13.0 0.00 0.00 0.00 42 1295.1
20260507184822 56 298 1.7 2.6 0.00 0.00 0.00 39 1295.3
20260507184320 55 285 2.6 5.2 0.00 0.00 0.00 38 1295.3
20260507183817 57 59 0.9 2.6 0.00 0.00 0.00 33 1295.2
20260507183314 57 64 0.9 1.7 0.00 0.00 0.00 37 1295.3
20260507182812 56 336 0.9 2.6 0.00 0.00 0.00 36 1295.3
20260507182307 56 276 1.7 1.7 0.00 0.00 0.00 41 1295.4
20260507181803 55 300 0.9 1.7 0.00 0.00 0.00 38 1295.4
20260507181259 55 273 1.7 2.6 0.00 0.00 0.00 39 1295.4
20260507180755 55 262 2.6 2.6 0.00 0.00 0.00 39 1295.4
20260507180253 55 281 0.9 0.9 0.00 0.00 0.00 41 1295.6
20260507175748 55 259 0.9 2.6 0.00 0.00 0.00 39 1295.4
20260507175245 55 294 0.9 2.6 0.00 0.00 0.00 38 1295.6
20260507174742 55 328 0.9 2.6 0.00 0.00 0.00 38 1295.3
20260507174241 55 290 0.9 0.9 0.00 0.00 0.00 40 1295.4
20260507173738 55 243 0.9 1.7 0.00 0.00 0.00 42 1295.4
20260507173229 55 285 2.6 4.3 0.00 0.00 0.00 40 1295.3
20260507172725 55 268 0.9 1.7 0.00 0.00 0.00 36 1295.7
20260507172222 55 281 1.7 5.2 0.00 0.00 0.00 38 1295.7
20260507171722 54 257 4.3 7.0 0.00 0.00 0.00 37 1295.6
20260507171220 55 283 0.0 0.9 0.00 0.00 0.00 36 1295.8
20260507170716 54 280 1.7 6.1 0.00 0.00 0.00 40 1296.0
20260507170214 54 301 0.0 4.3 0.00 0.00 0.00 38 1296.0
20260507165709 54 256 2.6 2.6 0.00 0.00 0.00 40 1295.9
20260507165205 53 261 2.6 6.1 0.00 0.00 0.00 40 1296.0
20260507164701 54 270 2.6 4.3 0.00 0.00 0.00 38 1295.9
20260507164159 54 247 2.6 4.3 0.00 0.00 0.00 39 1296.0
20260507163656 53 263 2.6 2.6 0.00 0.00 0.00 43 1296.0
20260507163154 53 291 0.9 2.6 0.00 0.00 0.00 42 1295.9
20260507162649 53 314 2.6 2.6 0.00 0.00 0.00 43 1296.2
20260507162146 54 287 2.6 4.3 0.00 0.00 0.00 41 1296.0
20260507161642 53 248 3.5 5.2 0.00 0.00 0.00 40 1296.3
20260507161139 52 296 1.7 2.6 0.00 0.00 0.00 43 1296.4
20260507160635 52 293 2.6 4.3 0.00 0.00 0.00 44 1296.4
20260507160132 51 278 0.9 2.6 0.00 0.00 0.00 45 1296.5
20260507155627 53 295 1.7 4.3 0.00 0.00 0.00 41 1296.3
20260507155124 52 298 2.6 7.0 0.00 0.00 0.00 40 1296.3
20260507154621 51 153 2.6 4.3 0.00 0.00 0.00 43 1296.3
20260507154118 51 281 1.7 5.2 0.00 0.00 0.00 42 1296.4
20260507153614 51 288 1.7 5.2 0.00 0.00 0.00 41 1296.4
20260507153111 51 262 3.5 7.0 0.00 0.00 0.00 39 1296.4
20260507152607 51 315 0.9 2.6 0.00 0.00 0.00 40 1296.3
20260507152103 51 307 1.7 2.6 0.00 0.00 0.00 40 1296.3
20260507151600 51 164 0.9 2.6 0.00 0.00 0.00 42 1296.4
20260507151057 49 256 2.6 6.1 0.00 0.00 0.00 42 1296.3
20260507150554 50 302 0.9 4.3 0.00 0.00 0.00 42 1296.4
20260507150051 48 255 1.7 7.8 0.00 0.00 0.00 47 1296.5
20260507145545 49 278 0.9 1.7 0.00 0.00 0.00 49 1296.7
20260507145044 46 22 0.9 1.7 0.00 0.00 0.00 54 1296.5
20260507144540 48 290 1.7 1.7 0.00 0.00 0.00 49 1296.5
20260507144038 46 274 0.9 1.7 0.00 0.00 0.00 52 1296.5
20260507143535 48 303 0.0 0.0 0.00 0.00 0.00 50 1296.2
20260507143032 48 177 0.9 1.7 0.00 0.00 0.00 55 1296.4
20260507142527 46 305 0.9 0.9 0.00 0.00 0.00 50 1296.5
20260507142024 45 153 0.9 2.6 0.00 0.00 0.00 56 1296.4
20260507141520 45 103 1.7 1.7 0.00 0.00 0.00 53 1296.7
20260507141017 44 304 4.3 7.8 0.00 0.00 0.00 50 1296.2
20260507140514 44 93 2.6 4.3 0.00 0.00 0.00 54 1296.2
20260507140012 42 48 1.7 4.3 0.00 0.00 0.00 62 1296.2
20260507135508 44 275 0.9 0.9 0.00 0.00 0.00 63 1296.3
20260507135006 42 281 0.9 0.9 0.00 0.00 0.00 57 1296.3
20260507134502 42 302 0.0 1.7 0.00 0.00 0.00 62 1296.2
20260507133958 40 263 1.7 1.7 0.00 0.00 0.00 61 1296.2
20260507133454 41 304 0.0 1.7 0.00 0.00 0.00 70 1296.2
20260507132952 41 120 1.7 1.7 0.00 0.00 0.00 65 1296.0
20260507132448 40 242 0.9 2.6 0.00 0.00 0.00 69 1295.9
20260507131945 39 281 0.0 0.0 0.00 0.00 0.00 67 1295.9
20260507131442 40 20 0.9 2.6 0.00 0.00 0.00 53 1295.9
20260507130939 40 333 0.0 0.9 0.00 0.00 0.00 59 1295.7
20260507130436 38 56 3.5 6.1 0.00 0.00 0.00 59 1295.7
20260507125935 39 296 2.6 7.0 0.00 0.00 0.00 47 1295.8
20260507125433 38 261 2.6 4.3 0.00 0.00 0.00 54 1295.8
20260507124929 37 134 0.9 1.7 0.00 0.00 0.00 62 1295.8
20260507124425 37 62 0.9 2.6 0.00 0.00 0.00 59 1295.4
20260507123924 38 54 2.6 4.3 0.00 0.00 0.00 55 1295.4
20260507123421 40 295 2.6 4.3 0.00 0.00 0.00 50 1295.3
20260507122918 40 183 2.6 6.1 0.00 0.00 0.00 49 1295.3
20260507122412 39 147 2.6 5.2 0.00 0.00 0.00 52 1295.2
20260507121909 39 164 0.9 4.3 0.00 0.00 0.00 52 1295.3
20260507121404 33 268 4.3 7.8 0.00 0.00 0.00 64 1295.4
20260507120901 28 191 0.9 1.7 0.00 0.00 0.00 88 1295.4
20260507120357 28 161 0.9 2.6 0.00 0.00 0.00 87 1295.2
20260507115854 27 247 0.0 1.7 0.00 0.00 0.00 89 1295.4
20260507115350 28 122 1.7 2.6 0.00 0.00 0.00 85 1295.3
20260507114846 28 226 0.0 1.7 0.00 0.00 0.00 85 1295.4
20260507114343 28 251 0.0 0.0 0.00 0.00 0.00 86 1295.6
20260507113840 28 126 1.7 1.7 0.00 0.00 0.00 86 1295.3
20260507113337 29 127 2.6 4.3 0.00 0.00 0.00 84 1295.2
20260507112835 29 117 1.7 2.6 0.00 0.00 0.00 84 1295.1
20260507112332 30 315 0.0 1.7 0.00 0.00 0.00 82 1295.4
20260507111829 29 123 0.9 1.7 0.00 0.00 0.00 84 1295.4
20260507111326 27 309 0.0 0.9 0.00 0.00 0.00 90 1295.2
20260507110822 27 229 0.0 0.9 0.00 0.00 0.00 89 1295.4
20260507110319 26 207 0.9 2.6 0.00 0.00 0.00 91 1295.4
20260507105815 26 229 0.9 0.9 0.00 0.00 0.00 93 1295.6
20260507105312 26 120 2.6 2.6 0.00 0.00 0.00 92 1295.7
20260507104809 26 128 1.7 2.6 0.00 0.00 0.00 88 1295.3
20260507104305 26 199 1.7 1.7 0.00 0.00 0.00 91 1295.6
20260507103802 27 221 0.9 0.9 0.00 0.00 0.00 89 1295.3
20260507103258 27 250 0.0 0.9 0.00 0.00 0.00 88 1295.3
20260507102754 27 263 0.0 2.6 0.00 0.00 0.00 89 1295.4
20260507102251 26 249 0.0 0.9 0.00 0.00 0.00 90 1295.7
20260507101747 27 166 1.7 1.7 0.00 0.00 0.00 89 1295.3
20260507101242 28 138 2.6 2.6 0.00 0.00 0.00 86 1295.4
20260507100740 28 279 0.0 1.7 0.00 0.00 0.00 86 1295.4
20260507100238 27 221 0.0 2.6 0.00 0.00 0.00 89 1295.3
20260507095736 27 241 1.7 2.6 0.00 0.00 0.00 85 1295.7
20260507095227 28 279 0.0 0.9 0.00 0.00 0.00 81 1295.8
20260507094724 28 195 1.7 1.7 0.00 0.00 0.00 82 1295.7
20260507094221 28 277 0.9 0.9 0.00 0.00 0.00 86 1295.7
20260507093717 27 243 0.0 1.7 0.00 0.00 0.00 88 1295.6
20260507093215 27 269 0.0 0.9 0.00 0.00 0.00 87 1295.7
20260507092713 28 209 0.9 4.3 0.00 0.00 0.00 86 1295.7
20260507092209 29 213 0.9 1.7 0.00 0.00 0.00 82 1295.7
20260507091706 28 259 0.0 0.9 0.00 0.00 0.00 85 1295.7
20260507091202 29 258 0.0 2.6 0.00 0.00 0.00 82 1295.7
20260507090657 28 25 0.9 1.7 0.00 0.00 0.00 84 1295.8
20260507090154 28 134 2.6 4.3 0.00 0.00 0.00 86 1295.7
20260507085651 28 121 1.7 1.7 0.00 0.00 0.00 87 1296.0
20260507085148 29 301 0.0 1.7 0.00 0.00 0.00 79 1295.9
20260507084645 28 248 0.0 1.7 0.00 0.00 0.00 84 1296.0
20260507084136 28 283 0.9 2.6 0.00 0.00 0.00 82 1295.9
20260507083633 26 223 0.0 1.7 0.00 0.00 0.00 89 1296.2
20260507083129 27 237 0.9 0.9 0.00 0.00 0.00 87 1295.8
20260507082626 27 210 0.9 1.7 0.00 0.00 0.00 87 1295.9
20260507082122 26 262 2.6 2.6 0.00 0.00 0.00 94 1296.0
20260507081619 25 279 0.0 0.9 0.00 0.00 0.00 95 1296.0
20260507081115 24 250 0.9 1.7 0.00 0.00 0.00 96 1295.8
20260507080611 24 207 0.9 0.9 0.00 0.00 0.00 96 1296.0
20260507080108 24 234 0.9 1.7 0.00 0.00 0.00 96 1296.2
20260507075603 24 161 1.7 1.7 0.00 0.00 0.00 96 1296.2
20260507075059 24 269 0.0 1.7 0.00 0.00 0.00 96 1296.3
20260507074556 24 220 0.0 1.7 0.00 0.00 0.00 96 1296.3
20260507074055 24 217 0.0 1.7 0.00 0.00 0.00 96 1296.0
20260507073550 25 199 2.6 2.6 0.00 0.00 0.00 96 1296.4
20260507073047 24 252 0.0 0.9 0.00 0.00 0.00 96 1296.3
20260507072544 23 259 0.0 1.7 0.00 0.00 0.00 96 1296.5
20260507072041 24 200 0.9 1.7 0.00 0.00 0.00 96 1296.5
20260507071539 24 216 1.7 1.7 0.00 0.00 0.00 96 1296.4
20260507071035 24 251 0.0 0.9 0.00 0.00 0.00 96 1296.7
20260507070533 24 215 0.9 2.6 0.00 0.00 0.00 96 1296.5
20260507070030 24 149 1.7 1.7 0.00 0.00 0.00 96 1296.3
20260507065526 25 188 0.9 1.7 0.00 0.00 0.00 95 1296.5
20260507065023 25 216 0.9 0.9 0.00 0.00 0.00 96 1296.5
20260507064521 24 217 0.9 1.7 0.00 0.00 0.00 95 1296.7
20260507064019 24 229 0.9 1.7 0.00 0.00 0.00 95 1296.5
20260507063516 26 244 0.0 0.9 0.00 0.00 0.00 95 1296.5
20260507063014 25 194 0.9 1.7 0.00 0.00 0.00 95 1296.5
20260507062510 25 233 0.9 1.7 0.00 0.00 0.00 95 1296.7
20260507062008 25 220 0.0 0.9 0.00 0.00 0.00 94 1296.5
20260507061505 25 277 0.0 0.9 0.00 0.00 0.00 93 1296.5
20260507061003 25 122 1.7 2.6 0.00 0.00 0.00 92 1296.7
20260507060500 26 196 0.9 1.7 0.00 0.00 0.00 92 1296.7
20260507055956 27 188 1.7 1.7 0.00 0.01 0.01 92 1296.4
20260507055452 26 202 0.0 0.9 0.00 0.01 0.01 91 1296.3
20260507054949 27 234 0.9 1.7 0.00 0.01 0.01 90 1296.2
20260507054444 27 210 0.9 0.9 0.00 0.01 0.01 91 1296.4
20260507053942 28 239 0.9 4.3 0.00 0.01 0.01 92 1296.2
20260507053440 27 216 0.0 1.7 0.00 0.01 0.01 93 1296.0
20260507052938 27 198 0.9 2.6 0.00 0.01 0.01 93 1296.3
20260507052435 27 254 0.0 0.9 0.00 0.01 0.01 93 1296.3
20260507051932 27 264 0.0 1.7 0.00 0.01 0.01 93 1296.4
20260507051430 27 243 0.9 1.7 0.00 0.01 0.01 93 1296.2
20260507050926 27 225 1.7 1.7 0.00 0.01 0.01 94 1296.2
20260507050423 27 254 0.0 1.7 0.00 0.01 0.01 94 1296.3
20260507045920 27 168 1.7 1.7 0.00 0.01 0.01 92 1296.3
20260507045416 28 249 0.0 1.7 0.00 0.01 0.01 91 1296.2
20260507044908 29 177 0.9 2.6 0.00 0.01 0.01 90 1296.2
20260507044405 29 292 0.9 4.3 0.00 0.01 0.01 90 1296.0
20260507043901 29 228 1.7 5.2 0.00 0.01 0.01 91 1296.0
20260507043357 29 191 0.9 5.2 0.00 0.01 0.01 90 1296.2
20260507042853 30 212 0.9 2.6 0.00 0.01 0.01 90 1296.0
20260507042350 29 299 1.7 1.7 0.00 0.01 0.01 91 1296.0
20260507041846 29 228 1.7 4.3 0.00 0.01 0.01 92 1296.0
20260507041343 29 175 3.5 5.2 0.00 0.01 0.01 92 1296.0
20260507040840 29 211 1.7 5.2 0.00 0.01 0.01 93 1296.0
20260507040336 28 251 1.7 6.1 0.00 0.01 0.01 93 1295.7